Location: Kalberh�ni
(46.4610°N, 7.2453°E)
Time: 21:31:56
(UTC+00:00)

USA 229 - Pass Details

Date: 29 October 2021
Orbit: 946 x 1266 km, 63.4° (Epoch: 25 November)

Event Time Altitude Azimuth Distance (km) Brightness Sun altitude
Rises 21:07:31 0° 299° (WNW) 3,794 7.3 -47.8°
Reaches altitude 10° 21:10:58 10° 317° (NW) 2,898 6.5 -48.3°
Enters shadow 21:13:17 16° 336° (NNW) 2,486 6.0 -48.6°
